Campo, CA

11:40 PM PST on December 09, 2019 (GMT -0800)
Campo

Weather History for KCZZ - August, 2019

Change the Weather History Date:

Friday, August 2, 2019

  Actual Average Record
Temperature  
Mean Temperature 78 °F 74 °F  
Max Temperature 98 °F 95 °F 104 °F (1997)
Min Temperature 57 °F 54 °F 39 °F (1985)
Degree Days  
Heating Degree Days 0 0  
Month to date heating degree days 0 0  
Since 1 June heating degree days 42 63  
Since 1 July heating degree days 6 7  
Cooling Degree Days 13 9  
Month to date cooling degree days 26 18  
Year to date cooling degree days 354 390  
Since 1 June cooling degree days 352 360  
Growing Degree Days 27 (Base 50)    
Moisture  
Dew Point 44 °F    
Average Humidity 39    
Maximum Humidity 67    
Minimum Humidity 11    
Precipitation  
Precipitation 0.00 in 0.02 in 0.26 in (2014)
Month to date precipitation 0.00 0.04  
Year to date precipitation 12.82 10.51  
Sea Level Pressure  
Sea Level Pressure 29.89 in    
Wind  
Wind Speed 7 mph (NNW)    
Max Wind Speed 21 mph    
Max Gust Speed 24 mph    
T = Trace of Precipitation, MM = Missing Value Source: NWS Daily Summary

Daily Weather History Graph

Daily Weather History Graph

Search for Another Location

Airport or City:

Astronomy

Aug. 02, 2019 Rise Set
Actual Time 6:00 AM PDT 7:43 PM PDT
Civil Twilight 5:33 AM PDT 8:09 PM PDT
Nautical Twilight 5:01 AM PDT 8:42 PM PDT
Astronomical Twilight 4:27 AM PDT 9:16 PM PDT
Moon 7:41 AM PDT (8/2) 9:20 PM PDT (8/2)
Length of Visible Light 14h 36m
Length of Day
13h 42m
Waxing Crescent, 4% of the Moon is Illuminated
Aug 2
Waxing Crescent
Aug 7
First Quarter
Aug 15
Full
Aug 23
Last Quarter
Aug 30
New

Hourly Weather History & Observations

Time (PDT) Temp. Heat Index Dew Point Humidity Pressure Visibility Wind Dir Wind Speed Gust Speed Precip Events Conditions
12:52 AM 62.1 °F - 51.1 °F 67% 29.90 in - NE 5.8 mph - N/A   Unknown
1:52 AM 62.1 °F - 50.0 °F 65% 29.88 in - NE 4.6 mph - N/A   Unknown
2:52 AM 61.0 °F - 48.9 °F 64% 29.88 in - NE 6.9 mph - N/A   Unknown
3:52 AM 60.1 °F - 48.0 °F 64% 29.89 in - NE 5.8 mph - N/A   Unknown
4:52 AM 59.0 °F - 46.9 °F 64% 29.89 in - NE 6.9 mph - N/A   Unknown
5:52 AM 57.9 °F - 45.0 °F 62% 29.91 in - NNE 4.6 mph - N/A   Unknown
6:52 AM 59.0 °F - 45.0 °F 60% 29.92 in - NE 4.6 mph - N/A   Unknown
7:52 AM 71.1 °F - 46.9 °F 42% 29.93 in - Calm Calm - N/A   Unknown
8:52 AM 82.0 °F - 41.0 °F 23% 29.92 in - Calm Calm - N/A   Unknown
9:52 AM 91.9 °F - 32.0 °F 12% 29.90 in - WNW 9.2 mph - N/A   Unknown
10:52 AM 93.9 °F - 33.1 °F 12% 29.91 in - WSW 12.7 mph - N/A   Unknown
11:52 AM 95.0 °F - 33.1 °F 11% 29.90 in - SSW 8.1 mph - N/A   Unknown
12:52 PM 96.1 °F - 36.0 °F 12% 29.90 in - West 12.7 mph 18.4 mph N/A   Unknown
1:52 PM 96.1 °F - 39.0 °F 14% 29.89 in - SW 11.5 mph 19.6 mph N/A   Unknown
2:52 PM 97.0 °F - 42.1 °F 15% 29.88 in - West 12.7 mph 24.2 mph N/A   Unknown
3:52 PM 93.0 °F - 43.0 °F 18% 29.87 in - WSW 12.7 mph 18.4 mph N/A   Unknown
4:52 PM 91.9 °F - 39.9 °F 16% 29.86 in - WSW 11.5 mph - N/A   Unknown
5:52 PM 90.0 °F - 43.0 °F 19% 29.86 in - WSW 9.2 mph - N/A   Unknown
6:52 PM 84.0 °F 82.6 °F 54.0 °F 35% 29.87 in - SSW 8.1 mph - N/A   Unknown
7:52 PM 79.0 °F - 54.0 °F 42% 29.87 in - SSW 3.5 mph - N/A   Unknown
8:52 PM 71.1 °F - 50.0 °F 47% 29.88 in - North 4.6 mph - N/A   Unknown
9:52 PM 71.1 °F - 46.9 °F 42% 29.88 in - NNE 5.8 mph - N/A   Unknown
10:52 PM 69.1 °F - 46.0 °F 44% 29.88 in - NE 5.8 mph - N/A   Unknown
11:52 PM 68.0 °F - 42.1 °F 39% 29.89 in - ENE 4.6 mph - N/A   Unknown